Flag for U.S.A. Weather past 2 weeks in Fort Wayne, Indiana, U.S.A.

60 °F


Feels Like: 60 °F
Forecast: 54 / 72 °F
Wind: 5 mph from Northeast

Location: Fort Wayne International Airport

Current Time: Oct 6, 2015 at 11:33:12 AM

Latest Report: Oct 6, 2015 at 10:54 AM

Visibility: 3 mi

Pressure: 30.15 "Hg

Humidity: 86%

Dew point: 56 °F

Location of Fort WayneLocation

Historic Weather in Fort Wayne — Graph


Fort Wayne temperature yesterday

Maximum temperature yesterday: 74 °F (at 4:54 PM)
Minimum temperature yesterday: 57 °F (at 7:54 AM)
Average temperature yesterday: 62 °F

Past Weeks' High & Low Weather Summary

High80 °F (Sep 28, 2:54 PM)97% (Sep 24, 5:54 AM)30.31 "Hg (Sep 24, 5:54 AM)
Low46 °F (Sep 22, 6:54 AM)33% (Sep 22, 3:54 PM)29.90 "Hg (Sep 29, 3:54 PM)
Average62 °F73%30.16 "Hg
* Reported Sep 21 9:54 AM — Oct 6 9:54 AM, Fort Wayne, Weather by CustomWeather, © 2015

Note: Actual official high and low records may vary slightly from our data, if they occured in-between our weather recording intervals... More about our weather records


Fort Wayne weather history for previous 24 hours

Time TempWeatherWind HumidityBarometerVisibility
9:54 AM
Tue, Oct 6
58 °FFog.5 mph93%30.15 "Hg2 mi
8:54 AM56 °FFog.7 mph97%30.14 "Hg1 mi
7:54 AM54 °FFog.3 mph93%30.13 "Hg3 mi
6:54 AM54 °FFog.No wind93%30.11 "Hg6 mi
5:54 AM54 °FPartly cloudy.3 mph93%30.10 "Hg9 mi
4:54 AM56 °FPartly cloudy.3 mph90%30.09 "Hg10 mi
3:54 AM56 °FOvercast.3 mph93%30.10 "Hg10 mi
2:54 AM56 °FPassing clouds.3 mph93%30.10 "Hg10 mi
1:54 AM57 °FPassing clouds.6 mph90%30.11 "Hg10 mi
12:54 AM58 °FPassing clouds.3 mph90%30.12 "Hg10 mi
11:54 PM
Mon, Oct 5
60 °FPassing clouds.5 mph86%30.12 "Hg10 mi
10:54 PM61 °FPassing clouds.5 mph83%30.12 "Hg10 mi
9:54 PM61 °FPassing clouds.5 mph83%30.12 "Hg10 mi
8:54 PM64 °FPassing clouds.5 mph78%30.11 "Hg10 mi
7:54 PM65 °FSunny.No wind76%30.10 "Hg10 mi
6:54 PM68 °FPartly sunny.5 mph70%30.09 "Hg10 mi
5:54 PM73 °FScattered clouds.7 mph62%30.09 "Hg10 mi
4:54 PM74 °FScattered clouds.7 mph62%30.10 "Hg10 mi
3:54 PM73 °FScattered clouds.5 mph62%30.10 "Hg10 mi
2:54 PM69 °FPartly sunny.6 mph68%30.11 "Hg10 mi
1:54 PM66 °FPartly sunny.3 mph73%30.15 "Hg10 mi
12:54 PM65 °FBroken clouds.6 mph76%30.17 "Hg10 mi
11:54 AM62 °FPartly sunny.8 mph80%30.18 "Hg9 mi
Weather by CustomWeather, © 2015

See weather overviewHow to use our weather pages